Savoy, IL

1:19 PM CDT on September 25, 2016 (GMT -0500)
Univ Of Illinois-Willard

Weather History for KCMI - April, 2014

Change the Weather History Date:

Tuesday, April 29, 2014

  Actual Average Record
Temperature  
Mean Temperature 59 °F 57 °F  
Max Temperature 68 °F 69 °F 84 °F (2007)
Min Temperature 49 °F 45 °F 33 °F (2008)
Degree Days  
Heating Degree Days 6 9  
Month to date heating degree days 331 400  
Since 1 July heating degree days 6335 5658  
Cooling Degree Days 0 1  
Month to date cooling degree days 3 3  
Year to date cooling degree days 3 4  
Growing Degree Days 8 (Base 50)    
Moisture  
Dew Point 50 °F    
Average Humidity 74    
Maximum Humidity 100    
Minimum Humidity 48    
Precipitation  
Precipitation 0.05 in 0.16 in 0.81 in (1998)
Month to date precipitation 3.75 3.62  
Year to date precipitation 7.89 10.44  
Sea Level Pressure  
Sea Level Pressure 29.57 in    
Wind  
Wind Speed 15 mph (SSW)    
Max Wind Speed 31 mph    
Max Gust Speed 38 mph    
Visibility 10 miles    
Events Rain , Thunderstorm    
T = Trace of Precipitation, MM = Missing Value Source: NWS Daily Summary

Daily Weather History Graph

Daily Weather History Graph

Search for Another Location

Airport or City:

Trip Planner

Search our weather history database for the weather conditions in past years. The results will help you decide how hot, cold, wet, or windy it might be!

Date:

Astronomy

Apr. 29, 2014 Rise Set
Actual Time 5:55 AM CDT 7:45 PM CDT
Civil Twilight 5:26 AM CDT 8:15 PM CDT
Nautical Twilight 4:51 AM CDT 8:50 PM CDT
Astronomical Twilight 4:13 AM CDT 9:28 PM CDT
Moon 6:13 AM CDT (4/29) 8:25 PM CDT (4/29)
Length of Visible Light 14h 48m
Length of Day
13h 50m
New Moon, 0% of the Moon is Illuminated
Apr 29
New Moon
May 6
First Quarter
May 14
Full
May 21
Last Quarter
May 28
New

Hourly Weather History & Observations

Time (CDT) Temp. Dew Point Humidity Pressure Visibility Wind Dir Wind Speed Gust Speed Precip Events Conditions
12:53 AM 55.0 °F 54.0 °F 96% 29.52 in 10.0 mi East 8.1 mph - N/A   Scattered Clouds
1:53 AM 54.0 °F 53.1 °F 97% 29.51 in 10.0 mi SE 6.9 mph - N/A   Mostly Cloudy
2:53 AM 53.1 °F 52.0 °F 96% 29.50 in 10.0 mi SE 10.4 mph - N/A   Clear
3:53 AM 53.1 °F 51.1 °F 93% 29.49 in 10.0 mi SE 8.1 mph - N/A   Clear
4:53 AM 53.1 °F 51.1 °F 93% 29.48 in 10.0 mi SE 11.5 mph - N/A   Clear
5:53 AM 51.1 °F 50.0 °F 96% 29.48 in 10.0 mi SSE 9.2 mph - N/A   Clear
6:53 AM 54.0 °F 51.1 °F 90% 29.49 in 10.0 mi South 16.1 mph - N/A   Clear
8:53 AM 59.0 °F 53.1 °F 81% 29.49 in 10.0 mi South 24.2 mph - N/A   Clear
9:53 AM 62.1 °F 50.0 °F 65% 29.49 in 10.0 mi SSW 24.2 mph 32.2 mph N/A   Clear
10:53 AM 61.0 °F 48.9 °F 64% 29.52 in 10.0 mi SW 21.9 mph - N/A   Scattered Clouds
11:53 AM 61.0 °F 48.0 °F 62% 29.54 in 10.0 mi SW 19.6 mph 27.6 mph N/A   Overcast
12:53 PM 60.1 °F 46.9 °F 62% 29.56 in 10.0 mi SW 18.4 mph - N/A   Overcast
1:53 PM 64.9 °F 48.9 °F 56% 29.55 in 10.0 mi SSW 21.9 mph 26.5 mph N/A   Mostly Cloudy
2:53 PM 66.9 °F 48.9 °F 52% 29.56 in 10.0 mi SW 19.6 mph 25.3 mph N/A   Partly Cloudy
4:00 PM 64.9 °F 46.0 °F 50% 29.57 in 10.0 mi SSW 23.0 mph 32.2 mph N/A Thunderstorm Overcast
4:15 PM 66.0 °F 46.0 °F 48% 29.56 in 10.0 mi South 23.0 mph 31.1 mph N/A   Mostly Cloudy
4:26 PM 66.9 °F 48.0 °F 51% 29.56 in 10.0 mi South 29.9 mph 36.8 mph N/A Thunderstorm Mostly Cloudy
4:41 PM 64.9 °F 46.9 °F 52% 29.57 in 10.0 mi South 25.3 mph 38.0 mph N/A   Scattered Clouds
5:53 PM 61.0 °F 46.0 °F 58% 29.60 in 10.0 mi SSW 18.4 mph - N/A   Scattered Clouds
6:10 PM 59.0 °F 48.9 °F 69% 29.61 in 10.0 mi WSW 8.1 mph - N/A   Mostly Cloudy
6:53 PM 57.0 °F 50.0 °F 77% 29.63 in 10.0 mi WNW 4.6 mph - N/A   Overcast
7:41 PM 55.9 °F 53.1 °F 90% 29.67 in 4.0 mi WSW 12.7 mph - 0.03 in Rain Rain
7:53 PM 55.0 °F 51.1 °F 86% 29.66 in 6.0 mi West 9.2 mph - 0.05 in Rain Rain
8:02 PM 54.0 °F 51.1 °F 90% 29.66 in 10.0 mi WNW 5.8 mph - 0.00 in Rain Light Rain
8:53 PM 52.0 °F 50.0 °F 93% 29.67 in 10.0 mi Calm Calm - 0.00 in   Mostly Cloudy
10:53 PM 53.1 °F 48.9 °F 86% 29.71 in 10.0 mi WSW 11.5 mph - N/A   Overcast
11:53 PM 50.0 °F 46.9 °F 89% 29.72 in 10.0 mi WSW 6.9 mph - N/A   Overcast